| time (UTC) | temp C | wind direction | speed KPH | gust KPH | rain 1hr cm | rain 24hr cm | rain mn cm | humidity % | barometer mb |
| 20260503002318 | 6 | 253 | 4.8 | 8.0 | 0.00 | 0.00 | 0.00 | 70 | 1015.3 |
| 20260503000814 | 6 | 293 | 1.6 | 3.2 | 0.00 | 0.00 | 0.00 | 69 | 1015.2 |
| 20260502235313 | 7 | 303 | 3.2 | 4.8 | 0.00 | 0.00 | 0.00 | 59 | 1015.0 |
| 20260502233814 | 7 | 305 | 1.6 | 3.2 | 0.00 | 0.00 | 0.00 | 59 | 1015.2 |
| 20260502232313 | 7 | 310 | 3.2 | 8.0 | 0.00 | 0.00 | 0.00 | 55 | 1015.2 |
| 20260502230812 | 7 | 337 | 4.8 | 8.0 | 0.00 | 0.00 | 0.00 | 54 | 1014.9 |
| 20260502225313 | 7 | 328 | 8.0 | 9.7 | 0.00 | 0.00 | 0.00 | 55 | 1015.2 |
| 20260502223812 | 7 | 339 | 4.8 | 9.7 | 0.00 | 0.00 | 0.00 | 53 | 1014.9 |
| 20260502222313 | 7 | 334 | 4.8 | 9.7 | 0.00 | 0.00 | 0.00 | 52 | 1015.2 |
| 20260502220814 | 7 | 318 | 8.0 | 11.3 | 0.00 | 0.00 | 0.00 | 53 | 1015.2 |
| 20260502215312 | 7 | 323 | 9.7 | 12.9 | 0.00 | 0.00 | 0.00 | 49 | 1015.2 |
| 20260502213813 | 7 | 347 | 8.0 | 9.7 | 0.00 | 0.00 | 0.00 | 51 | 1014.9 |
| 20260502212313 | 7 | 332 | 11.3 | 14.5 | 0.00 | 0.00 | 0.00 | 52 | 1015.2 |
| 20260502210813 | 7 | 4 | 4.8 | 11.3 | 0.00 | 0.00 | 0.00 | 51 | 1015.2 |
| 20260502205313 | 8 | 354 | 9.7 | 16.1 | 0.00 | 0.00 | 0.00 | 52 | 1014.9 |
| 20260502203812 | 8 | 344 | 8.0 | 11.3 | 0.00 | 0.00 | 0.00 | 54 | 1015.2 |
| 20260502202313 | 7 | 306 | 4.8 | 12.9 | 0.00 | 0.00 | 0.00 | 53 | 1015.6 |
| 20260502200812 | 8 | 318 | 9.7 | 14.5 | 0.00 | 0.00 | 0.00 | 56 | 1015.6 |
| 20260502195314 | 7 | 329 | 9.7 | 14.5 | 0.00 | 0.00 | 0.00 | 56 | 1015.6 |
| 20260502193813 | 8 | 339 | 9.7 | 12.9 | 0.00 | 0.00 | 0.00 | 56 | 1015.8 |
| 20260502192312 | 7 | 2 | 9.7 | 11.3 | 0.00 | 0.00 | 0.00 | 55 | 1015.9 |
| 20260502190812 | 7 | 299 | 4.8 | 9.7 | 0.00 | 0.00 | 0.00 | 62 | 1015.9 |
| 20260502185314 | 7 | 339 | 9.7 | 16.1 | 0.00 | 0.00 | 0.00 | 58 | 1016.3 |
| 20260502183812 | 7 | 341 | 9.7 | 11.3 | 0.00 | 0.00 | 0.00 | 58 | 1016.3 |
| 20260502182314 | 7 | 302 | 4.8 | 9.7 | 0.00 | 0.00 | 0.00 | 61 | 1016.3 |
| 20260502180813 | 6 | 335 | 9.7 | 12.9 | 0.00 | 0.03 | 0.00 | 65 | 1016.6 |
| 20260502163812 | 6 | 331 | 9.7 | 14.5 | 0.00 | 0.03 | 0.00 | 66 | 1016.9 |
| 20260502162313 | 6 | 332 | 4.8 | 8.0 | 0.00 | 0.03 | 0.00 | 62 | 1016.6 |
| 20260502160813 | 6 | 354 | 4.8 | 9.7 | 0.00 | 0.03 | 0.00 | 63 | 1016.3 |
| 20260502152313 | 7 | 20 | 4.8 | 9.7 | 0.00 | 0.03 | 0.00 | 67 | 1016.6 |
| 20260502150812 | 7 | 337 | 8.0 | 11.3 | 0.00 | 0.05 | 0.00 | 65 | 1016.4 |
| 20260502123813 | 4 | 323 | 3.2 | 8.0 | 0.00 | 0.10 | 0.00 | 75 | 1016.6 |
| 20260502122314 | 3 | 352 | 1.6 | 3.2 | 0.00 | 0.10 | 0.00 | 79 | 1016.6 |
| 20260502120813 | 3 | 334 | 1.6 | 3.2 | 0.00 | 0.13 | 0.00 | 80 | 1016.9 |
| 20260502115313 | 3 | 326 | 1.6 | 3.2 | 0.00 | 0.15 | 0.00 | 82 | 1016.9 |
| 20260502113812 | 3 | 334 | 1.6 | 3.2 | 0.00 | 0.18 | 0.00 | 83 | 1016.6 |
| 20260502112313 | 2 | 335 | 3.2 | 3.2 | 0.00 | 0.23 | 0.00 | 83 | 1016.6 |
| 20260502110812 | 2 | 333 | 3.2 | 4.8 | 0.00 | 0.23 | 0.00 | 83 | 1016.6 |
| 20260502105313 | 2 | 335 | 1.6 | 4.8 | 0.00 | 0.25 | 0.00 | 84 | 1016.4 |
| 20260502103812 | 2 | 334 | 3.2 | 4.8 | 0.00 | 0.25 | 0.00 | 83 | 1016.4 |
| 20260502102312 | 2 | 333 | 4.8 | 9.7 | 0.00 | 0.25 | 0.00 | 83 | 1016.3 |
| 20260502100813 | 2 | 337 | 4.8 | 8.0 | 0.00 | 0.25 | 0.00 | 86 | 1016.3 |
| 20260502090812 | 2 | 333 | 3.2 | 4.8 | 0.00 | 0.30 | 0.00 | 83 | 1016.3 |
| 20260502070812 | 2 | 27 | 1.6 | 3.2 | 0.00 | 0.48 | 0.00 | 76 | 1015.8 |
| 20260502065313 | 2 | 25 | 1.6 | 3.2 | 0.00 | 0.48 | 0.00 | 76 | 1015.7 |
| 20260502063817 | 2 | 42 | 3.2 | 4.8 | 0.00 | 0.51 | 0.00 | 77 | 1015.6 |
| 20260502062312 | 3 | 43 | 0.0 | 3.2 | 0.00 | 0.53 | 0.00 | 77 | 1015.9 |
| 20260502060812 | 2 | 62 | 3.2 | 3.2 | 0.00 | 0.56 | 0.00 | 76 | 1015.9 |
| 20260502055312 | 3 | 64 | 1.6 | 3.2 | 0.00 | 0.56 | 0.00 | 77 | 1015.9 |
| 20260502053812 | 3 | 55 | 3.2 | 4.8 | 0.00 | 0.56 | 0.00 | 77 | 1015.9 |
| 20260502052312 | 3 | 353 | 1.6 | 3.2 | 0.00 | 0.56 | 0.00 | 82 | 1016.6 |
| 20260502050812 | 3 | 97 | 1.6 | 3.2 | 0.00 | 0.56 | 0.00 | 76 | 1016.3 |
| 20260502045313 | 3 | 83 | 1.6 | 3.2 | 0.00 | 0.56 | 0.00 | 75 | 1016.3 |
| 20260502043812 | 3 | 22 | 0.0 | 3.2 | 0.00 | 0.56 | 0.00 | 76 | 1016.3 |
| 20260502042313 | 3 | 63 | 1.6 | 8.0 | 0.00 | 0.56 | 0.00 | 71 | 1016.3 |
| 20260502040812 | 3 | 59 | 4.8 | 4.8 | 0.00 | 0.56 | 0.00 | 71 | 1016.3 |
| 20260502035312 | 3 | 65 | 1.6 | 3.2 | 0.00 | 0.56 | 0.56 | 72 | 1015.9 |
| 20260502033812 | 3 | 86 | 4.8 | 9.7 | 0.00 | 0.56 | 0.56 | 68 | 1015.6 |
| 20260502032314 | 3 | 72 | 1.6 | 4.8 | 0.00 | 0.56 | 0.56 | 72 | 1015.9 |
| 20260502030812 | 3 | 81 | 1.6 | 4.8 | 0.00 | 0.56 | 0.56 | 73 | 1015.6 |
| 20260502025313 | 3 | 78 | 1.6 | 3.2 | 0.00 | 0.56 | 0.56 | 72 | 1015.6 |
| 20260502023812 | 4 | 64 | 1.6 | 3.2 | 0.00 | 0.56 | 0.56 | 72 | 1015.9 |
| 20260502022313 | 4 | 61 | 3.2 | 4.8 | 0.00 | 0.56 | 0.56 | 72 | 1015.9 |
| 20260502020813 | 4 | 74 | 3.2 | 8.0 | 0.00 | 0.56 | 0.56 | 70 | 1015.6 |
| 20260502015314 | 5 | 56 | 3.2 | 8.0 | 0.00 | 0.56 | 0.56 | 71 | 1015.4 |
| 20260502013812 | 5 | 68 | 3.2 | 8.0 | 0.00 | 0.56 | 0.56 | 77 | 1014.9 |
| 20260502012315 | 5 | 47 | 1.6 | 4.8 | 0.00 | 0.56 | 0.56 | 77 | 1014.6 |
| 20260502010811 | 5 | 78 | 1.6 | 4.8 | 0.00 | 0.56 | 0.56 | 78 | 1014.6 |
| 20260502005312 | 5 | 307 | 4.8 | 11.3 | 0.00 | 0.56 | 0.56 | 78 | 1014.6 |
| 20260502003812 | 5 | 44 | 0.0 | 1.6 | 0.00 | 0.56 | 0.56 | 82 | 1014.6 |